Location: Allentsteig
(48.6833°N, 15.3167°E)
Time: 08:06:53
(UTC+00:00)

Cosmos 2298 Rocket - Pass Details

Date: 25 January 2021
Orbit: 775 x 784 km, 74.0° (Epoch: 24 February)

Event Time Altitude Azimuth Distance (km) Brightness Sun altitude
Rises 19:03:59 0° 207° (SSW) 3,251 7.5 -32.5°
Reaches altitude 10° 19:06:22 10° 209° (SSW) 2,328 6.7 -32.9°
Enters shadow 19:07:42 18° 211° (SSW) 1,823 6.1 -33.1°
